Wind_Speed
9 9 10 10 10 10 11 12 12 12 12 13 14 14 15 15 16 17 17 17 18 18 19 19 19 20 20 21 21 22 22 23 23 23 23 23 23 23 23 23 22 23 23 24 25 26 26 25 25 24 23 22 22 22 22 22 22 23 23 24 24 24 24 24 24 24 24 24 24
9 9 9 10 10 10 11 12 12 12 13 13 14 15 16 16 17 17 18 18 18 18 19 20 20 20 21 21 22 22 22 23 23 23 24 24 24 23 23 23 22 23 23 24 25 26 26 26 25 24 23 22 22 22 22 22 22 22 23 24 23 23 23 23 22 23 23 23 23
9 9 10 10 11 11 12 12 13 13 13 14 15 15 16 17 17 18 18 18 18 19 19 20 20 21 22 22 22 22 22 23 23 24 24 24 24 23 23 23 23 23 23 24 26 26 27 26 25 24 22 22 22 22 22 22 22 22 23 23 23 22 22 22 22 22 23 23 23
9 10 10 11 11 12 12 13 13 14 14 15 15 16 16 17 17 18 18 18 19 19 20 20 21 22 22 22 22 22 22 23 23 23 24 24 24 24 24 23 23 23 24 25 26 27 27 27 26 24 23 22 22 22 22 22 23 23 23 23 22 22 22 22 22 22 22 22 23
9 10 10 11 11 12 12 13 13 14 15 15 16 17 17 17 18 18 18 19 19 20 20 21 22 22 22 22 22 22 23 23 23 23 24 24 24 24 24 24 24 24 24 25 26 27 27 27 26 24 23 22 22 22 22 23 24 24 24 24 23 22 22 22 22 22 22 23 23
9 10 10 11 12 12 13 13 14 14 15 16 16 17 18 18 18 19 19 20 21 21 21 22 21 21 21 21 22 22 23 23 23 24 24 24 24 24 24 24 24 24 25 25 26 27 27 27 26 24 23 22 22 22 23 23 24 25 25 25 24 23 23 23 23 23 23 24 25
9 10 11 11 12 12 13 13 14 15 15 16 17 18 18 19 19 20 20 21 22 22 22 21 21 21 21 22 23 23 23 24 24 24 24 24 24 24 24 24 24 25 25 25 26 26 27 26 25 23 23 22 22 23 24 24 25 25 26 25 25 24 24 24 24 24 25 25 26
10 10 11 11 11 12 13 13 14 15 16 16 17 18 19 19 20 20 21 21 22 22 22 21 21 22 22 23 23 24 24 24 24 24 24 24 24 24 24 24 25 25 25 25 25 26 26 26 24 23 23 23 23 24 25 26 26 26 26 26 26 25 25 25 25 25 26 26 27
10 10 10 10 11 11 12 13 14 15 16 17 18 18 19 19 20 20 21 21 21 21 21 21 22 22 23 23 23 24 24 24 24 24 24 24 24 24 24 25 25 25 25 25 25 26 26 25 24 24 24 24 25 26 27 27 26 26 26 26 26 26 26 26 26 26 26 26 27
10 10 10 10 11 11 12 13 14 15 16 17 18 19 19 19 19 20 20 21 21 21 21 22 22 23 23 23 24 24 24 24 23 24 24 24 24 24 24 25 25 25 25 25 26 26 26 25 24 25 26 26 27 28 29 28 27 26 26 26 26 27 27 27 26 26 26 26 26
10 10 10 10 11 12 12 13 14 15 16 17 18 18 18 19 19 19 20 20 21 21 22 22 22 23 23 24 24 24 24 23 23 24 24 24 24 24 24 24 24 25 25 26 26 26 26 25 26 27 28 28 29 29 29 28 27 26 26 27 27 27 27 27 26 26 26 26 27
9 9 10 10 11 12 12 13 15 15 16 17 18 18 18 18 19 19 19 20 21 21 22 22 22 23 23 23 24 24 23 23 24 24 24 25 25 25 24 24 24 25 25 26 27 27 26 27 27 28 29 30 30 30 29 29 27 27 27 27 27 27 27 27 26 25 26 26 27
9 9 10 10 11 12 13 14 15 16 16 17 17 17 18 18 18 18 19 20 20 21 22 22 22 22 23 23 23 23 23 24 24 24 25 25 25 25 24 24 24 25 26 27 27 27 28 28 28 29 30 31 31 30 30 29 27 27 27 27 27 27 27 26 25 25 26 26 27
9 9 10 10 11 12 13 14 14 15 16 16 17 17 17 17 18 18 19 19 20 21 22 22 22 23 23 23 23 24 24 24 25 25 25 25 25 25 24 24 25 25 26 27 28 28 29 29 30 30 30 31 31 31 30 29 27 26 26 26 27 27 26 26 25 25 25 26 27
9 10 10 10 11 12 13 14 14 15 15 16 16 17 17 18 18 19 19 20 21 22 22 23 23 23 23 23 24 24 24 25 25 25 25 25 25 25 25 25 26 26 27 28 28 29 30 30 31 31 31 31 31 31 30 29 27 26 25 25 26 26 25 24 24 24 25 26 27
10 10 10 10 11 12 13 13 14 15 16 16 17 17 18 19 19 19 20 20 21 22 22 23 24 24 24 25 24 25 25 25 25 25 25 25 25 25 25 26 26 27 27 28 29 30 30 31 31 32 32 32 32 32 31 30 27 26 24 24 24 24 23 23 23 23 24 25 26
10 10 10 10 11 12 13 14 14 15 16 17 18 18 19 19 19 20 20 21 21 22 23 24 24 25 25 25 25 25 25 25 25 25 25 25 26 26 26 27 27 27 28 28 29 30 31 32 32 32 32 32 32 32 32 31 28 26 24 23 22 22 22 22 22 22 23 24 25
10 10 10 11 11 12 13 14 15 16 17 17 18 18 19 19 20 20 21 21 22 23 23 24 25 25 25 26 26 25 25 25 25 25 25 26 27 27 27 27 27 28 28 29 29 30 31 32 32 32 32 33 33 33 33 32 30 26 24 22 21 21 21 21 20 21 21 23 24
11 10 11 11 12 12 13 14 15 16 17 17 18 18 19 19 19 20 21 21 22 22 23 24 25 25 25 26 26 25 25 25 25 26 27 27 27 27 27 27 27 28 28 29 30 31 32 32 32 32 33 33 34 34 34 33 31 26 22 20 20 20 20 20 19 19 20 21 23
11 11 11 11 12 12 13 14 15 16 16 17 17 18 18 19 19 20 21 21 22 22 23 23 24 25 25 25 26 26 26 26 26 27 27 27 27 27 27 27 27 28 29 29 30 31 31 32 32 32 33 33 34 35 35 34 30 25 20 18 18 19 19 19 18 18 19 21 22
12 12 11 11 12 13 14 14 15 15 16 16 17 17 18 18 19 20 20 21 21 22 22 23 24 24 25 25 26 26 26 26 26 26 26 26 26 26 26 27 28 28 29 30 31 31 31 31 31 32 32 33 35 36 36 34 29 23 18 16 17 18 18 18 18 19 19 20 21
12 12 12 12 12 13 13 14 14 15 15 16 17 17 18 18 19 19 20 21 21 22 22 23 24 24 25 25 26 26 26 26 25 25 25 25 25 26 26 27 28 29 30 30 30 31 31 31 31 31 32 33 34 35 34 31 25 19 16 15 16 17 18 18 19 19 19 20 20
12 12 12 12 12 13 13 13 14 15 15 16 16 17 18 18 19 19 20 21 21 22 22 23 24 24 25 25 25 25 25 25 25 25 25 25 25 26 27 27 28 29 29 30 30 30 30 30 30 31 31 32 32 32 30 26 21 17 15 15 15 17 18 19 19 20 20 20 20
13 13 13 12 12 12 13 13 14 15 15 16 16 17 18 18 19 19 20 21 21 22 22 23 23 24 24 25 25 24 24 24 25 25 25 25 26 26 27 27 28 28 28 29 29 28 27 27 28 29 30 30 30 29 27 24 20 18 15 14 15 17 18 19 20 20 21 21 21
14 13 13 12 12 12 13 13 14 14 15 15 16 17 18 18 19 20 20 21 21 22 22 23 23 24 24 24 24 23 23 24 24 25 25 26 26 27 27 27 27 28 29 29 28 26 25 26 27 28 29 29 29 28 28 26 22 18 15 13 15 17 19 20 20 21 21 21 21
14 13 12 12 12 13 13 13 13 13 14 15 16 17 18 18 19 20 20 21 21 22 22 23 23 23 23 23 23 23 23 23 24 25 25 26 26 27 27 27 27 28 29 29 27 26 26 26 27 28 28 28 29 30 29 26 21 17 14 13 14 17 18 20 20 21 21 21 20
13 13 13 13 13 13 12 12 12 13 14 15 16 17 18 18 19 19 20 21 21 22 22 22 22 22 22 22 22 23 23 24 24 25 25 26 26 26 27 27 28 28 29 28 26 26 26 27 27 27 28 28 29 29 27 23 18 14 13 13 14 16 17 19 20 20 20 21 20
13 13 13 13 13 13 12 11 12 13 14 15 16 17 17 18 19 20 20 21 21 21 22 22 22 21 21 22 22 23 24 25 25 25 25 25 26 26 27 27 28 28 28 27 26 26 27 27 27 27 27 28 28 28 25 20 16 14 14 15 15 16 16 17 18 19 20 21 21
14 14 14 14 13 12 11 11 11 12 14 15 16 16 17 18 19 19 20 20 21 21 21 21 21 21 21 22 23 24 24 25 25 25 25 25 26 26 27 27 28 29 28 27 27 27 27 27 28 28 28 28 27 26 23 20 17 16 17 19 19 17 17 17 18 19 20 21 21
15 15 15 14 14 12 11 11 11 12 13 14 16 16 17 18 19 19 20 20 20 20 21 21 21 21 22 22 23 24 24 25 25 25 25 25 26 26 27 27 29 29 29 28 27 27 27 27 28 28 28 27 27 25 22 20 19 19 21 22 22 20 18 17 17 18 20 21 21
16 16 15 15 14 13 12 11 11 12 13 14 16 17 17 18 19 19 20 20 20 20 20 20 21 21 22 22 23 23 24 25 25 25 25 25 25 26 27 28 29 30 29 28 27 27 27 28 28 28 28 28 28 26 24 20 19 20 22 23 24 22 20 18 17 18 19 20 21
17 16 16 15 15 13 12 11 11 11 13 14 15 17 17 18 19 19 19 20 20 20 20 20 21 21 22 22 23 23 24 24 25 25 25 25 26 27 28 28 29 30 29 27 27 27 27 28 28 28 29 29 30 29 27 23 21 21 23 25 26 25 22 19 17 18 19 20 20
17 17 16 16 15 14 12 11 11 11 13 14 16 17 17 18 19 19 19 19 20 20 20 20 20 21 21 22 23 23 24 24 25 25 25 25 26 27 28 28 29 29 28 28 28 28 28 28 29 29 29 30 31 31 30 26 23 22 24 27 28 27 23 18 16 17 18 19 20
17 17 16 16 15 14 12 11 11 12 13 15 16 17 17 18 18 19 19 19 19 20 20 20 20 21 21 22 22 23 24 24 25 25 25 26 26 27 27 28 29 29 29 28 28 29 29 29 29 30 31 32 31 31 29 26 24 23 25 27 29 27 23 18 16 16 17 18 18
17 17 16 16 15 14 13 12 11 12 14 15 16 17 17 18 18 19 19 19 19 20 20 20 20 21 21 22 22 22 23 24 24 25 25 26 26 26 27 28 30 30 29 29 29 30 30 30 30 31 32 32 30 28 27 26 24 24 26 28 28 26 22 17 15 15 16 17 17
17 17 17 16 15 14 13 12 12 13 15 16 17 17 17 17 18 18 19 19 19 20 20 20 21 21 21 22 22 22 23 23 24 25 25 25 25 26 27 28 30 30 30 30 30 30 30 31 31 33 33 31 27 24 24 24 23 24 26 28 27 23 19 16 15 15 15 15 15
17 17 17 16 15 14 13 12 13 14 15 16 17 17 17 17 18 18 18 19 19 20 20 21 21 21 21 22 22 23 23 23 23 24 24 24 25 25 26 28 29 30 31 30 30 30 31 31 32 33 33 28 23 22 22 22 22 23 25 27 24 19 16 15 15 14 13 12 13
18 17 17 17 16 15 13 13 14 15 16 16 16 17 17 17 18 18 18 18 19 19 20 21 21 21 21 22 22 23 23 23 23 23 23 24 24 24 25 26 28 30 31 30 30 30 31 32 33 33 29 23 21 21 21 20 21 22 24 25 25 21 16 14 14 12 11 11 12
18 17 17 17 16 15 14 14 14 15 16 16 16 17 17 17 18 18 18 18 18 19 20 21 21 21 22 22 22 23 23 23 23 23 23 23 23 23 24 25 27 29 30 30 30 30 30 31 32 30 25 20 20 21 20 19 19 20 22 23 25 24 20 16 13 11 10 10 11
18 17 17 17 16 15 14 14 15 15 15 16 16 17 17 18 18 18 18 18 18 19 20 20 21 21 21 21 22 22 23 23 23 22 22 22 23 23 23 24 26 28 29 29 29 29 30 31 30 25 21 19 20 20 19 18 17 18 20 22 24 24 22 18 13 10 9 10 11
17 17 17 16 15 14 14 15 15 15 16 16 17 17 17 18 18 18 18 18 18 19 20 20 21 21 21 21 21 22 23 23 23 22 22 22 23 23 23 24 26 27 28 28 28 29 30 29 25 22 20 19 20 19 18 17 15 16 19 21 22 22 21 19 15 12 11 11 11
Wind_Direction
264 266 267 268 270 271 272 274 276 277 279 282 284 287 289 291 292 292 293 293 293 293 295 297 299 301 303 305 306 307 308 309 310 311 312 312 313 313 314 315 317 319 320 321 322 323 324 324 324 322 321 321 321 322 323 323 324 324 323 323 323 323 322 321 319 318 319 320 320
262 264 264 264 264 266 269 272 275 277 279 281 284 287 289 290 290 291 291 291 292 293 295 296 298 300 302 304 305 306 307 308 309 310 311 311 311 312 312 313 314 316 317 319 321 323 324 324 323 321 319 319 320 321 322 323 324 324 323 323 323 323 322 321 320 320 321 321 321
262 263 262 262 262 264 267 271 274 277 279 282 284 286 288 289 290 290 290 291 292 294 295 296 298 300 301 303 304 305 306 307 308 309 310 310 310 310 311 311 312 313 315 317 319 321 322 323 322 320 318 317 318 319 320 321 323 323 323 323 322 322 322 321 321 321 321 321 321
262 262 262 262 263 265 267 270 273 276 279 281 284 286 287 288 289 289 290 292 293 294 295 297 298 300 301 302 303 304 305 306 307 308 308 308 309 309 310 310 310 311 312 314 317 319 320 322 321 319 317 315 315 317 318 320 321 322 322 322 321 320 320 319 319 320 320 320 320
260 261 262 263 264 266 268 270 273 276 279 282 284 286 287 287 289 290 291 292 293 294 295 297 298 299 300 301 302 303 304 305 306 307 307 308 308 308 309 309 309 310 311 312 314 316 318 320 320 318 316 314 314 314 316 318 319 321 321 321 321 319 318 317 317 318 319 319 319
255 258 260 262 264 266 269 271 274 277 280 282 284 285 286 287 289 290 291 292 293 294 296 297 297 298 299 300 301 303 304 305 306 306 306 307 307 308 308 308 309 309 310 310 312 313 315 317 317 317 315 314 313 313 314 316 318 319 320 321 320 319 318 316 316 317 317 318 318
253 256 259 261 264 267 270 273 276 278 281 283 283 285 286 287 288 290 291 292 293 295 296 296 297 297 298 300 301 302 303 304 305 305 306 306 307 307 308 309 309 309 309 310 310 312 313 315 315 314 313 313 312 312 313 315 317 318 319 319 319 319 318 316 316 316 317 317 318
256 260 263 266 269 271 273 276 278 280 282 282 283 284 286 288 289 290 291 292 293 294 295 296 296 297 298 300 301 302 302 303 304 305 305 306 306 307 308 309 309 309 309 310 310 311 312 313 312 311 311 311 311 312 313 314 315 316 316 317 317 318 318 317 318 317 317 317 318
260 266 271 273 274 275 277 279 280 281 282 282 283 285 286 288 290 291 292 293 293 294 294 295 296 297 298 299 300 300 301 302 303 304 305 305 306 307 308 309 310 310 310 310 310 311 311 311 310 309 309 309 310 311 312 314 314 314 314 315 316 317 318 319 319 318 318 317 317
261 267 271 274 275 276 278 279 279 280 281 282 284 286 287 289 290 291 292 293 294 294 295 295 296 297 298 298 299 300 301 302 302 303 304 304 305 306 307 308 310 310 310 311 311 311 311 310 308 308 308 308 309 310 312 313 313 312 312 313 315 316 318 319 320 320 318 318 317
260 265 269 272 275 276 277 278 279 280 282 284 286 287 288 289 290 291 293 294 294 295 295 296 297 297 298 298 298 299 300 301 301 302 303 303 304 305 306 307 309 310 310 311 311 311 310 309 308 307 308 309 309 310 311 312 312 311 311 312 314 315 316 318 320 320 319 318 317
259 264 268 271 274 277 278 279 281 282 284 286 287 289 290 291 292 294 295 295 295 295 295 296 297 297 297 297 298 299 299 300 300 301 302 302 303 304 305 306 307 309 309 310 310 310 309 308 308 308 308 309 310 310 310 311 311 309 309 310 312 314 315 317 319 320 320 319 317
257 262 266 270 273 276 278 280 282 284 286 287 288 290 291 292 294 295 295 296 295 296 296 297 297 297 297 297 297 298 298 299 299 300 301 301 302 303 304 305 306 307 308 308 309 309 309 308 308 308 308 309 309 310 310 310 309 307 306 307 309 311 313 316 318 319 320 319 318
256 260 264 269 273 275 278 279 282 284 286 288 289 290 291 292 294 295 295 296 296 297 297 298 298 298 297 297 297 297 297 298 298 299 300 300 301 302 302 303 304 305 306 307 308 308 308 308 308 308 308 308 308 309 310 309 307 305 304 304 306 308 311 314 316 317 318 318 318
253 257 262 267 271 274 276 279 281 284 286 287 288 290 291 292 294 295 296 297 297 298 298 299 299 299 299 298 297 297 297 297 298 298 299 299 300 300 301 302 303 304 305 306 307 307 308 308 309 309 308 307 307 307 308 307 305 303 301 301 303 305 308 310 312 315 316 317 317
251 256 260 264 268 272 275 277 280 282 285 286 288 290 292 293 295 296 297 298 298 299 299 300 300 300 300 299 299 298 298 297 297 297 298 298 299 300 301 301 302 304 304 305 306 306 307 308 309 309 308 307 306 305 305 305 303 301 299 298 300 302 304 306 309 312 315 317 317
251 255 259 263 267 270 273 276 279 281 284 287 289 292 293 295 297 298 299 299 300 300 301 301 301 302 301 301 300 300 299 298 297 297 297 297 298 299 300 301 302 303 304 304 305 305 306 308 309 309 308 306 304 303 302 301 300 298 296 295 296 298 299 302 306 311 314 316 316
250 254 258 262 266 270 273 276 279 282 285 288 291 293 295 297 298 299 300 301 301 301 302 302 303 303 303 302 302 301 299 298 297 296 296 296 297 298 300 301 302 303 303 303 304 304 306 307 308 309 308 306 304 301 299 297 296 294 292 292 292 293 295 298 304 310 313 313 314
247 252 256 260 264 269 273 276 279 283 286 290 292 295 297 298 299 300 301 302 303 303 303 304 304 304 304 304 303 302 300 299 297 297 296 297 298 299 300 302 302 302 303 303 303 304 305 306 307 308 307 306 304 301 298 294 291 289 288 288 289 290 292 296 303 308 310 310 311
244 248 253 258 264 268 272 276 280 284 288 292 294 296 297 299 300 301 302 303 304 305 305 305 305 306 306 306 306 304 303 301 300 299 299 300 301 301 301 302 302 303 303 303 304 304 305 306 307 307 306 305 303 301 297 292 287 284 283 284 287 289 291 295 301 304 306 307 310
242 247 252 258 263 268 273 277 282 287 290 293 294 296 297 299 300 302 302 304 305 306 306 306 307 308 309 309 308 307 307 306 304 303 303 303 302 302 303 303 303 303 304 304 304 305 305 306 306 306 305 304 303 300 296 290 284 280 278 280 286 289 292 294 297 300 302 305 308
243 247 252 257 262 268 273 279 284 288 290 292 294 296 298 299 301 302 304 305 306 306 307 308 309 310 311 311 311 310 310 309 308 306 305 304 304 304 304 304 304 304 304 304 305 305 306 306 306 305 304 303 302 300 296 289 281 274 271 277 286 291 294 295 295 297 300 303 306
244 248 252 256 261 268 274 280 285 288 290 292 294 296 298 299 300 302 304 304 306 307 308 310 312 313 313 314 313 312 311 310 309 308 306 305 305 304 305 305 304 304 304 305 305 306 306 306 306 305 303 302 301 299 296 288 278 267 265 274 286 293 296 295 295 296 298 300 302
243 247 251 256 262 269 275 280 284 287 290 292 295 297 298 299 300 301 303 304 306 307 309 311 313 314 314 314 314 312 311 309 308 308 307 307 306 306 306 306 305 305 305 305 305 305 306 306 305 304 304 304 303 302 298 290 277 265 261 273 286 294 296 296 295 295 297 298 299
241 246 251 256 262 268 274 278 282 287 290 293 296 297 297 298 299 300 302 303 306 308 310 311 313 314 314 313 313 312 310 309 308 308 308 307 307 307 307 307 306 306 306 306 305 306 306 306 306 306 307 308 308 307 303 295 279 265 261 274 287 293 295 295 294 294 295 297 297
241 246 251 256 261 266 271 276 282 287 291 293 295 295 296 296 298 299 301 303 305 308 310 311 312 312 312 312 311 311 310 310 309 308 308 308 309 309 309 308 307 307 307 307 306 307 307 308 308 309 310 311 312 311 307 298 282 267 262 275 287 292 292 292 293 294 296 297 297
241 246 250 254 259 264 270 276 282 287 290 292 293 293 294 295 297 298 300 302 305 307 309 310 311 311 311 311 311 310 310 310 310 310 310 310 310 310 310 309 308 308 308 307 308 308 309 310 310 311 311 312 313 315 313 306 290 273 267 276 286 291 291 290 291 293 295 297 296
238 242 247 252 257 263 269 277 282 285 288 289 291 292 293 295 296 298 300 302 304 306 308 309 309 310 309 309 309 309 310 310 311 311 311 311 311 311 310 310 309 309 309 308 309 310 310 311 311 311 312 313 315 318 319 317 305 290 282 285 289 291 290 289 289 291 294 296 296
234 239 244 250 256 263 270 275 280 283 286 288 289 291 292 294 295 297 300 302 304 305 306 307 308 308 308 308 309 310 310 311 311 312 312 312 312 311 311 311 310 310 310 309 310 311 311 311 311 312 313 315 316 317 319 319 314 305 298 296 294 292 289 287 287 289 292 294 295
232 238 244 251 257 263 269 273 278 281 285 287 289 290 291 293 295 297 300 302 303 304 305 306 306 307 307 308 309 310 310 311 312 312 312 312 312 312 312 312 312 312 311 311 311 312 312 313 313 315 315 316 315 314 312 310 307 303 300 298 295 292 288 285 284 286 289 293 295
234 240 246 252 257 262 267 272 277 281 283 286 287 289 291 293 295 297 299 301 302 303 304 305 305 305 306 307 308 309 309 310 311 312 312 312 312 312 312 312 312 313 312 312 312 313 314 315 316 317 317 316 314 311 307 303 300 298 297 296 293 290 287 284 282 284 287 291 293
235 241 246 251 256 260 266 271 276 279 282 284 286 288 290 292 294 297 299 300 302 303 303 303 304 304 305 306 307 308 309 310 311 312 312 312 312 312 313 313 313 313 312 312 313 314 316 317 318 318 317 316 314 312 309 304 299 297 296 295 291 288 285 282 280 282 285 289 292
236 240 244 249 254 259 264 270 275 279 282 284 285 287 289 291 294 296 298 300 301 302 302 302 303 303 304 305 307 308 309 310 310 311 312 312 313 313 313 313 313 312 312 311 313 315 317 318 318 318 317 316 316 317 316 313 307 302 299 296 291 287 282 278 276 278 282 288 293
235 238 242 247 252 258 263 269 275 279 282 283 284 285 288 290 293 295 298 299 300 301 301 301 301 302 303 304 306 307 308 309 310 311 312 313 313 313 313 312 312 312 312 311 313 315 316 317 317 316 316 317 319 324 329 330 325 318 311 303 295 286 279 274 272 274 280 289 296
233 237 241 246 251 256 262 268 273 277 279 280 282 284 287 289 292 294 297 299 300 300 300 300 301 301 303 304 305 306 307 308 310 311 312 313 313 312 312 311 312 313 312 312 312 314 315 316 315 315 315 317 323 334 344 348 343 335 326 316 301 287 275 270 268 272 280 292 301
232 236 240 244 249 254 260 265 270 273 275 277 279 282 286 289 291 294 296 298 299 299 299 300 301 302 303 304 305 306 307 308 310 311 312 312 312 312 311 311 312 313 313 313 313 313 314 315 315 315 316 320 330 344 354 354 350 344 337 328 313 295 278 269 267 271 282 296 306
232 235 239 244 248 252 256 260 264 268 270 274 277 281 285 289 291 293 296 298 299 299 299 300 301 302 303 304 306 307 308 310 310 311 312 312 312 312 311 311 312 313 313 313 313 314 315 315 315 317 320 327 341 354 357 353 350 348 346 342 332 317 294 276 268 273 285 301 311
231 234 238 242 247 250 253 256 260 264 268 273 277 282 285 288 291 293 295 297 298 298 299 301 302 303 304 306 307 308 309 310 311 311 312 312 313 313 313 312 312 313 314 315 315 316 317 317 318 321 328 341 357 1 357 352 350 350 352 353 350 341 322 294 277 277 290 306 315
230 233 237 242 246 249 251 255 258 263 268 274 278 282 285 287 289 291 294 295 297 298 299 301 302 304 306 307 308 309 309 310 311 312 312 313 314 314 313 313 313 315 316 317 317 318 319 321 324 330 341 357 5 3 357 352 350 352 355 357 356 350 338 317 296 289 297 312 319
230 233 237 241 244 248 251 255 259 264 269 273 277 280 283 285 288 291 293 295 296 297 299 301 302 304 307 308 308 309 310 311 312 313 314 315 315 315 314 314 315 317 319 319 320 321 323 326 332 343 357 6 4 1 357 352 350 354 358 359 357 353 346 335 321 310 311 320 326
230 232 235 239 243 247 250 255 259 263 267 271 274 278 282 285 288 290 292 294 296 298 299 301 303 305 307 308 309 310 310 312 313 315 316 316 317 317 317 318 319 320 322 323 324 325 327 331 342 357 6 5 2 0 357 351 351 359 4 2 359 357 354 350 344 337 332 331 334
Height
870 870 870 870 870 869 869 869 868 868 868 867 867 866 866 865 864 863 863 862 861 861 860 859 858 857 856 855 854 853 852 851 850 849 848 847 846 845 844 843 842 841 839 838 836 835 833 831 830 829 827 825 824 822 821 820 819 817 816 814 813 811 810 808 806 804 803 801 800
869 869 869 869 869 869 868 868 867 867 867 867 866 866 865 864 863 862 862 861 860 860 859 858 857 856 855 854 853 852 851 850 849 848 847 846 845 844 843 842 841 840 838 837 835 834 832 831 829 828 826 824 823 821 820 819 818 816 815 813 812 811 809 807 805 804 802 801 799
868 868 868 868 868 867 867 867 866 866 866 866 865 865 864 863 862 861 861 860 859 859 858 857 856 855 854 853 852 851 850 849 848 847 846 845 844 843 842 841 840 838 837 836 835 833 831 830 828 827 825 823 822 821 819 818 816 815 814 812 811 810 808 806 805 803 801 800 799
867 867 867 867 867 866 866 866 866 865 865 865 864 864 863 862 861 861 860 859 858 858 857 856 855 854 853 852 851 850 849 848 847 846 845 844 843 842 841 840 838 837 836 835 833 832 831 829 828 826 824 823 821 820 818 817 816 814 813 811 810 809 807 806 804 803 801 800 798
866 866 866 866 866 866 865 865 865 864 864 863 863 862 862 861 860 860 859 858 857 856 856 855 854 853 852 851 850 849 848 847 846 845 844 843 841 841 840 838 837 836 835 834 832 831 830 828 827 825 823 822 821 819 817 816 815 813 812 810 809 808 806 805 803 802 800 799 797
865 865 865 865 865 865 864 864 864 863 863 862 862 861 861 860 859 859 858 857 856 855 855 854 853 852 851 850 849 848 847 846 845 844 843 841 840 839 838 837 836 835 834 832 831 830 829 827 826 824 822 821 820 818 817 815 814 812 811 809 808 806 805 804 802 801 799 798 796
864 864 864 863 863 863 863 863 863 862 862 861 861 860 859 859 858 857 857 856 855 854 853 853 852 851 850 849 848 847 846 845 844 843 841 841 839 838 837 836 835 834 833 831 830 829 827 826 825 823 822 820 819 817 816 814 813 811 810 808 806 805 804 803 801 800 798 797 795
862 862 862 862 862 862 862 862 861 861 861 860 860 859 858 858 857 856 856 855 854 853 852 851 851 850 849 848 847 846 845 843 842 841 840 839 838 837 836 835 834 833 831 830 829 828 826 825 824 822 821 819 818 816 814 813 812 811 809 807 806 804 803 801 800 799 797 796 794
861 861 861 861 861 861 861 861 861 860 860 859 858 858 857 857 856 855 854 854 853 852 851 850 849 848 848 846 846 844 843 842 841 840 839 838 837 836 835 834 832 831 830 829 828 827 826 824 823 821 820 819 817 815 813 812 811 809 808 806 805 803 801 800 799 798 796 795 793
860 860 860 860 860 860 860 860 860 859 859 858 857 857 856 856 855 854 853 852 851 851 850 849 848 847 846 845 844 843 842 841 840 839 838 837 836 835 834 832 831 830 829 828 827 826 824 823 821 820 819 817 816 814 812 811 810 808 807 805 804 802 801 799 798 797 796 794 792
859 859 859 859 859 859 859 859 858 858 857 857 856 856 855 854 854 853 852 851 851 850 849 848 847 846 845 844 843 842 841 840 839 838 837 836 835 834 832 831 830 829 828 827 826 824 823 821 820 819 817 816 815 813 811 810 808 807 806 804 803 801 799 798 797 796 794 793 791
857 857 857 857 858 858 858 857 857 856 856 856 855 854 854 853 852 852 851 850 849 848 847 846 846 845 844 843 842 841 840 839 838 836 836 834 833 832 831 830 829 828 827 826 824 823 822 820 819 817 816 814 813 811 810 809 807 806 805 803 801 800 798 797 796 795 793 792 791
856 856 856 856 856 856 856 856 856 856 855 854 854 853 853 852 851 851 850 849 848 847 846 845 845 844 842 841 841 839 838 837 836 835 834 833 832 831 830 829 828 827 826 824 823 822 821 819 818 816 815 813 811 810 809 807 806 805 803 802 800 799 797 796 795 793 792 791 789
855 855 855 855 855 855 855 855 855 854 854 853 853 852 852 851 850 850 849 848 847 846 845 844 843 842 841 840 839 838 837 836 835 834 833 832 831 830 829 827 826 825 824 823 822 821 819 818 816 815 813 812 810 809 807 806 805 803 802 801 799 798 796 795 794 792 791 790 788
854 854 854 854 854 854 854 854 854 853 853 852 852 851 851 850 849 848 848 847 846 845 844 842 841 841 840 839 838 837 836 835 834 832 831 830 829 828 827 826 825 824 823 821 820 819 818 816 815 814 812 811 809 807 806 805 803 802 801 799 798 797 796 794 793 791 790 789 787
853 853 853 853 853 853 853 853 852 852 852 851 851 850 850 849 848 847 846 846 844 843 842 841 840 839 838 837 836 836 834 833 832 831 830 829 828 827 826 825 824 822 821 820 819 817 816 815 814 812 811 809 807 806 804 803 801 800 799 798 797 796 795 793 792 790 789 788 786
852 852 851 852 852 852 851 851 851 851 851 850 850 849 848 847 847 846 845 844 843 842 841 840 839 838 837 836 835 834 833 832 831 830 829 827 826 825 824 823 822 821 820 819 817 816 814 813 812 811 809 807 806 804 802 801 800 799 798 797 796 795 794 792 790 789 787 786 785
851 851 851 851 851 851 850 850 850 850 849 849 848 848 847 846 846 845 844 843 842 841 840 839 838 837 836 835 833 833 832 831 829 828 827 826 825 824 823 822 821 820 818 817 816 814 813 811 810 809 807 806 804 802 800 799 798 797 796 796 795 793 792 790 788 787 786 785 784
849 849 849 849 849 849 849 849 849 848 848 848 847 846 846 845 845 844 843 842 841 840 839 838 836 836 835 833 832 831 831 829 828 827 826 825 824 822 821 820 819 818 817 816 814 813 811 810 809 807 806 804 802 800 798 796 796 795 795 794 793 792 790 788 786 785 785 784 783
848 848 848 848 848 848 848 848 847 847 847 846 846 845 845 844 843 842 841 841 840 839 838 837 835 834 833 832 831 830 829 828 827 826 824 823 822 821 820 819 817 816 815 814 813 811 810 809 807 806 804 802 800 798 796 794 793 793 793 793 791 790 788 786 785 784 783 782 781
847 847 847 847 847 847 846 846 846 846 846 845 845 844 844 843 842 841 841 840 839 838 837 836 834 833 832 831 830 828 827 826 825 824 823 821 821 820 818 817 816 815 814 812 811 810 809 807 806 804 802 800 798 796 794 792 791 791 791 791 790 788 786 785 784 783 782 781 780
845 846 846 846 846 845 845 845 845 845 844 844 843 843 842 842 841 840 839 838 838 836 836 834 833 832 831 829 828 827 826 825 824 822 821 820 819 818 817 816 815 814 812 811 810 808 807 806 804 802 800 798 796 794 791 790 790 790 790 789 788 786 785 784 783 782 781 780 779
844 844 844 844 844 844 844 844 844 843 843 843 842 842 841 841 840 839 838 837 836 836 834 833 832 831 830 828 827 826 825 823 822 821 820 819 818 817 816 815 814 812 811 810 808 807 806 804 802 800 798 796 794 792 790 789 788 788 787 787 786 785 784 783 782 781 780 779 778
843 843 843 843 843 843 843 843 842 842 842 841 841 841 840 840 839 838 837 836 835 834 833 832 831 830 829 827 826 825 824 822 821 820 819 818 817 816 815 814 813 811 810 808 807 806 805 803 801 799 797 795 793 791 789 787 786 785 785 785 785 784 783 782 781 780 779 778 777
841 842 842 842 842 841 841 841 841 841 841 840 840 840 839 838 838 837 836 835 834 833 832 831 830 829 827 826 825 824 823 822 820 819 818 817 816 815 814 813 811 810 808 807 806 805 804 802 800 797 796 794 792 790 788 786 784 784 784 785 784 783 782 781 780 779 778 777 776
840 841 841 841 840 840 840 840 840 840 839 839 839 838 838 837 837 836 835 834 833 832 831 830 829 828 826 825 824 823 822 821 820 818 817 816 815 814 812 811 810 808 807 805 805 803 802 800 798 796 794 792 791 789 786 784 782 783 783 784 783 782 780 779 778 777 776 776 775
839 839 839 839 839 839 839 839 839 838 838 838 838 837 837 836 836 835 834 833 832 831 830 829 828 827 826 825 823 822 821 820 819 818 816 815 814 812 811 810 808 807 805 804 803 802 800 798 796 795 793 791 789 787 785 783 782 782 783 782 781 780 779 777 776 776 775 774 774
837 838 838 838 838 838 837 837 837 837 837 837 836 836 836 835 835 834 833 832 831 830 829 828 827 826 825 824 822 821 820 819 818 816 816 814 813 812 810 809 807 806 804 803 802 801 799 797 795 793 791 790 788 786 785 783 782 782 781 781 779 778 777 776 775 775 774 773 772
836 836 836 836 836 836 836 836 836 836 836 836 836 835 835 834 833 832 831 831 830 829 828 827 826 825 824 823 821 820 819 818 817 816 815 813 812 811 809 808 806 804 803 802 801 799 797 795 793 791 790 788 786 785 783 782 781 780 779 778 776 776 775 774 774 773 772 771 771
834 835 835 835 835 835 835 835 835 835 835 835 834 834 833 833 832 831 831 830 829 828 827 826 825 824 823 822 821 819 818 817 816 815 814 812 811 810 808 806 805 803 801 801 799 798 796 794 792 790 788 787 785 783 781 780 779 778 777 775 774 773 772 772 772 771 771 770 769
833 833 834 834 834 834 834 833 833 833 833 833 833 833 832 832 831 830 830 829 828 827 826 825 824 823 822 821 820 819 817 816 815 814 813 811 810 809 807 805 804 802 800 799 798 796 794 792 791 789 787 785 783 781 779 777 776 776 775 773 772 771 770 770 770 770 769 768 768
832 832 832 832 832 832 832 832 832 832 832 832 832 831 831 831 830 829 828 828 827 826 825 824 823 822 821 820 819 818 816 815 814 813 812 811 809 808 806 804 802 801 799 798 796 795 793 791 789 787 785 783 781 779 777 776 775 774 773 771 770 769 768 768 768 768 768 767 766
830 831 831 831 831 831 831 831 831 831 831 831 831 830 830 829 829 828 827 827 826 825 824 823 822 821 820 819 818 817 816 815 813 812 811 810 809 807 805 803 801 800 798 797 796 794 792 790 788 786 784 781 779 777 776 775 774 773 771 770 768 766 766 766 767 767 766 766 765
829 829 829 830 830 830 830 830 830 830 830 830 829 829 829 828 827 827 826 826 825 824 823 822 821 820 819 818 817 816 815 814 812 811 810 809 808 806 805 803 801 799 797 796 795 793 791 789 787 785 783 781 779 777 776 775 773 772 770 768 766 764 764 765 765 766 765 765 765
827 827 828 828 828 828 829 829 829 829 829 828 828 828 827 827 826 826 825 825 824 823 822 821 820 819 818 817 816 815 814 813 811 811 809 808 807 805 804 802 800 798 797 795 794 792 790 788 786 784 781 780 778 777 776 774 773 771 769 767 765 763 763 764 764 764 764 764 764
826 826 826 826 827 827 827 827 827 827 827 827 827 826 826 826 825 825 824 823 823 822 821 820 819 818 817 816 815 814 813 812 811 810 808 807 806 805 803 801 799 797 796 794 793 791 789 787 785 782 780 779 778 777 775 774 772 771 769 767 764 763 763 763 764 764 764 764 763
824 824 825 825 825 826 826 826 826 826 826 826 825 825 825 824 824 823 823 822 821 821 820 819 818 817 816 815 814 813 812 811 810 809 808 806 805 804 802 800 798 796 795 793 792 790 788 786 783 781 779 778 777 776 775 773 772 771 769 767 765 764 763 763 763 763 763 763 763
822 823 823 824 824 824 824 825 825 825 825 824 824 824 823 823 823 822 822 821 821 820 818 817 817 816 815 814 813 812 811 810 810 808 807 806 805 803 802 800 798 796 794 792 791 789 787 785 782 780 779 777 777 776 774 773 772 771 769 768 766 765 763 763 762 762 763 763 762
821 821 822 822 822 823 823 823 823 823 823 823 823 822 822 822 821 821 821 820 820 819 818 816 816 815 814 813 812 811 810 809 808 807 806 805 804 803 801 799 797 795 793 792 790 788 786 784 782 780 778 777 776 776 774 773 772 771 770 768 766 765 764 763 762 762 762 762 762
819 820 820 821 821 821 821 821 821 821 821 821 821 821 821 821 820 820 819 819 818 818 817 816 815 814 813 812 811 810 809 808 807 806 806 804 803 802 801 799 797 795 793 791 790 788 786 784 782 780 779 778 776 776 774 773 772 771 770 768 767 766 764 763 763 762 762 762 761
818 818 819 819 819 820 820 820 820 820 820 820 820 820 820 819 819 819 818 818 817 816 816 815 814 813 812 811 811 809 808 807 806 805 804 803 802 801 800 798 796 794 792 791 789 787 785 784 782 781 779 778 776 776 774 773 772 771 770 769 768 766 765 764 763 763 762 762 761